Time,TemperatureF,DewpointF,PressureIn,WindDirection,WindDirectionDegrees,WindSpeedMPH,WindSpeedGustMPH,Humidity,HourlyPrecipIn,Conditions,Clouds,dailyrainin,SoftwareType,DateUTC
2013-01-14 00:05:00,60.6,59.0,30.06,NNW,343,1.0,1.0,95,0.39,,,0.00,weatherlink.com 1.10,2013-01-14 05:05:00,
2013-01-14 00:20:00,60.3,59.0,30.06,NNW,343,0.0,1.0,95,0.25,,,0.03,weatherlink.com 1.10,2013-01-14 05:20:00,
2013-01-14 00:35:00,59.9,59.0,30.05,NNW,345,0.0,1.0,95,0.23,,,0.09,weatherlink.com 1.10,2013-01-14 05:35:00,
2013-01-14 00:50:00,59.8,58.0,30.05,NNW,344,0.0,1.0,95,0.18,,,0.12,weatherlink.com 1.10,2013-01-14 05:50:00,
2013-01-14 01:05:00,59.7,58.0,30.05,NNW,345,0.0,1.0,95,0.12,,,0.13,weatherlink.com 1.10,2013-01-14 06:05:00,
2013-01-14 01:20:00,59.6,58.0,30.05,NNW,345,0.0,0.0,95,0.10,,,0.14,weatherlink.com 1.10,2013-01-14 06:20:00,
2013-01-14 01:35:00,59.5,58.0,30.04,NNW,345,0.0,0.0,95,0.08,,,0.17,weatherlink.com 1.10,2013-01-14 06:35:00,
2013-01-14 01:50:00,59.5,58.0,30.05,NNW,345,1.0,1.0,96,0.07,,,0.19,weatherlink.com 1.10,2013-01-14 06:50:00,
2013-01-14 02:05:00,59.1,58.0,30.05,NNW,342,0.0,1.0,95,0.10,,,0.23,weatherlink.com 1.10,2013-01-14 07:05:00,
2013-01-14 02:20:00,59.0,58.0,30.05,NNW,342,0.0,1.0,96,0.09,,,0.23,weatherlink.com 1.10,2013-01-14 07:20:00,
2013-01-14 02:35:00,58.8,57.0,30.04,NNW,342,0.0,1.0,95,0.07,,,0.24,weatherlink.com 1.10,2013-01-14 07:35:00,
2013-01-14 02:50:00,58.7,58.0,30.05,NNW,342,0.0,0.0,96,0.05,,,0.24,weatherlink.com 1.10,2013-01-14 07:50:00,
2013-01-14 03:05:00,58.7,58.0,30.04,NNW,343,0.0,0.0,96,0.01,,,0.24,weatherlink.com 1.10,2013-01-14 08:05:00,
2013-01-14 03:20:00,58.6,58.0,30.04,NNW,342,0.0,0.0,96,0.01,,,0.24,weatherlink.com 1.10,2013-01-14 08:20:00,
2013-01-14 03:35:00,58.7,58.0,30.04,NNW,342,0.0,0.0,96,0.01,,,0.25,weatherlink.com 1.10,2013-01-14 08:35:00,
2013-01-14 03:51:00,58.7,58.0,30.04,NNW,342,0.0,0.0,96,0.02,,,0.26,weatherlink.com 1.10,2013-01-14 08:51:00,
2013-01-14 04:06:00,58.6,58.0,30.03,NNW,343,0.0,0.0,96,0.03,,,0.27,weatherlink.com 1.10,2013-01-14 09:06:00,
2013-01-14 04:21:00,58.5,57.0,30.03,NNW,342,0.0,0.0,96,0.03,,,0.27,weatherlink.com 1.10,2013-01-14 09:21:00,
2013-01-14 04:36:00,58.4,57.0,30.03,NNW,343,0.0,1.0,96,0.02,,,0.27,weatherlink.com 1.10,2013-01-14 09:36:00,
2013-01-14 04:51:00,58.3,57.0,30.03,NNW,347,1.0,2.0,96,0.01,,,0.27,weatherlink.com 1.10,2013-01-14 09:51:00,
2013-01-14 05:06:00,57.9,57.0,30.04,North,8,3.0,5.0,96,0.01,,,0.28,weatherlink.com 1.10,2013-01-14 10:06:00,
2013-01-14 05:21:00,55.0,54.0,30.05,North,359,1.0,4.0,95,0.02,,,0.29,weatherlink.com 1.10,2013-01-14 10:21:00,
2013-01-14 05:36:00,54.6,53.0,30.05,NNE,19,0.0,1.0,95,0.02,,,0.29,weatherlink.com 1.10,2013-01-14 10:36:00,
2013-01-14 05:51:00,54.5,53.0,30.05,NNE,19,0.0,1.0,95,0.02,,,0.29,weatherlink.com 1.10,2013-01-14 10:51:00,
2013-01-14 06:06:00,53.9,53.0,30.06,West,263,1.0,1.0,95,0.01,,,0.29,weatherlink.com 1.10,2013-01-14 11:06:00,
2013-01-14 06:21:00,53.2,52.0,30.07,NE,56,0.0,3.0,95,0.01,,,0.30,weatherlink.com 1.10,2013-01-14 11:21:00,
2013-01-14 06:36:00,52.4,51.0,30.07,North,354,0.0,2.0,95,0.02,,,0.31,weatherlink.com 1.10,2013-01-14 11:36:00,
2013-01-14 06:51:00,51.9,51.0,30.08,North,4,2.0,2.0,95,0.02,,,0.31,weatherlink.com 1.10,2013-01-14 11:51:00,
2013-01-14 07:06:00,51.2,50.0,30.09,NE,46,0.0,2.0,95,0.04,,,0.33,weatherlink.com 1.10,2013-01-14 12:06:00,
2013-01-14 07:21:00,51.0,50.0,30.09,ENE,74,1.0,2.0,95,0.04,,,0.34,weatherlink.com 1.10,2013-01-14 12:21:00,
2013-01-14 07:36:00,50.5,49.0,30.08,ESE,114,0.0,1.0,95,0.07,,,0.38,weatherlink.com 1.10,2013-01-14 12:36:00,
2013-01-14 07:51:00,50.1,49.0,30.10,West,259,0.0,2.0,95,0.09,,,0.40,weatherlink.com 1.10,2013-01-14 12:51:00,
2013-01-14 08:06:00,49.6,48.0,30.09,North,11,0.0,1.0,95,0.10,,,0.43,weatherlink.com 1.10,2013-01-14 13:06:00,
2013-01-14 08:21:00,49.3,48.0,30.10,North,10,0.0,1.0,95,0.11,,,0.45,weatherlink.com 1.10,2013-01-14 13:21:00,
2013-01-14 08:36:00,49.0,48.0,30.11,East,92,0.0,1.0,95,0.08,,,0.47,weatherlink.com 1.10,2013-01-14 13:36:00,
2013-01-14 08:51:00,48.6,47.0,30.12,NNE,33,1.0,1.0,95,0.10,,,0.50,weatherlink.com 1.10,2013-01-14 13:51:00,
2013-01-14 09:06:00,48.2,47.0,30.12,NE,49,0.0,1.0,95,0.08,,,0.51,weatherlink.com 1.10,2013-01-14 14:06:00,
2013-01-14 09:21:00,47.8,47.0,30.14,NNW,348,2.0,3.0,95,0.06,,,0.51,weatherlink.com 1.10,2013-01-14 14:21:00,
2013-01-14 09:36:00,47.5,46.0,30.14,South,174,0.0,2.0,95,0.06,,,0.53,weatherlink.com 1.10,2013-01-14 14:36:00,
2013-01-14 09:51:00,47.7,46.0,30.14,SSE,165,0.0,1.0,95,0.04,,,0.54,weatherlink.com 1.10,2013-01-14 14:51:00,
2013-01-14 10:06:00,47.5,46.0,30.15,SSW,193,0.0,1.0,95,0.04,,,0.55,weatherlink.com 1.10,2013-01-14 15:06:00,
2013-01-14 10:21:00,46.9,46.0,30.14,SE,133,1.0,2.0,95,0.06,,,0.57,weatherlink.com 1.10,2013-01-14 15:21:00,
2013-01-14 10:36:00,46.8,46.0,30.14,SW,217,0.0,1.0,95,0.05,,,0.58,weatherlink.com 1.10,2013-01-14 15:36:00,
2013-01-14 10:51:00,46.6,45.0,30.15,WSW,252,0.0,2.0,95,0.05,,,0.59,weatherlink.com 1.10,2013-01-14 15:51:00,
2013-01-14 11:06:00,46.1,45.0,30.14,ENE,67,1.0,2.0,95,0.05,,,0.60,weatherlink.com 1.10,2013-01-14 16:06:00,
2013-01-14 11:22:00,46.0,45.0,30.14,West,281,0.0,1.0,95,0.08,,,0.65,weatherlink.com 1.10,2013-01-14 16:22:00,
2013-01-14 11:37:00,46.1,45.0,30.13,West,280,0.0,0.0,95,0.13,,,0.71,weatherlink.com 1.10,2013-01-14 16:37:00,
2013-01-14 11:52:00,46.1,45.0,30.12,NNW,342,0.0,0.0,95,0.19,,,0.78,weatherlink.com 1.10,2013-01-14 16:52:00,
2013-01-14 12:07:00,46.2,45.0,30.11,NNW,342,0.0,0.0,95,0.21,,,0.81,weatherlink.com 1.10,2013-01-14 17:07:00,
2013-01-14 12:22:00,46.1,45.0,30.11,North,4,1.0,1.0,95,0.21,,,0.86,weatherlink.com 1.10,2013-01-14 17:22:00,
2013-01-14 12:37:00,45.9,45.0,30.10,NNE,12,0.0,1.0,95,0.22,,,0.93,weatherlink.com 1.10,2013-01-14 17:37:00,
2013-01-14 12:52:00,46.1,45.0,30.10,NNE,12,0.0,1.0,95,0.20,,,0.98,weatherlink.com 1.10,2013-01-14 17:52:00,
2013-01-14 13:07:00,46.2,45.0,30.09,NNE,13,1.0,1.0,95,0.21,,,1.03,weatherlink.com 1.10,2013-01-14 18:07:00,
2013-01-14 13:22:00,46.0,45.0,30.09,ESE,107,0.0,2.0,95,0.21,,,1.07,weatherlink.com 1.10,2013-01-14 18:22:00,
2013-01-14 13:37:00,46.0,45.0,30.09,NE,56,0.0,1.0,95,0.17,,,1.10,weatherlink.com 1.10,2013-01-14 18:37:00,
2013-01-14 13:52:00,46.1,45.0,30.08,NE,40,1.0,1.0,95,0.14,,,1.12,weatherlink.com 1.10,2013-01-14 18:52:00,
2013-01-14 14:07:00,46.1,45.0,30.08,NNE,23,0.0,2.0,95,0.10,,,1.13,weatherlink.com 1.10,2013-01-14 19:07:00,
2013-01-14 14:22:00,46.3,45.0,30.08,NNE,23,0.0,1.0,95,0.07,,,1.14,weatherlink.com 1.10,2013-01-14 19:22:00,
2013-01-14 14:37:00,46.2,45.0,30.09,NNE,12,0.0,3.0,95,0.04,,,1.15,weatherlink.com 1.10,2013-01-14 19:37:00,
2013-01-14 14:52:00,46.0,45.0,30.08,North,358,0.0,2.0,95,0.07,,,1.19,weatherlink.com 1.10,2013-01-14 19:52:00,
2013-01-14 15:07:00,46.4,45.0,30.09,North,9,0.0,1.0,96,0.09,,,1.22,weatherlink.com 1.10,2013-01-14 20:07:00,
2013-01-14 15:22:00,46.4,45.0,30.09,North,8,0.0,1.0,95,0.11,,,1.25,weatherlink.com 1.10,2013-01-14 20:22:00,
2013-01-14 15:37:00,46.5,46.0,30.09,NNE,29,1.0,1.0,96,0.12,,,1.27,weatherlink.com 1.10,2013-01-14 20:37:00,
2013-01-14 15:52:00,47.0,46.0,30.09,NNE,25,0.0,2.0,96,0.08,,,1.28,weatherlink.com 1.10,2013-01-14 20:52:00,
2013-01-14 16:07:00,47.2,46.0,30.10,North,352,0.0,1.0,96,0.06,,,1.28,weatherlink.com 1.10,2013-01-14 21:07:00,
2013-01-14 16:22:00,47.5,47.0,30.11,North,352,0.0,1.0,96,0.03,,,1.28,weatherlink.com 1.10,2013-01-14 21:22:00,
2013-01-14 16:37:00,47.8,47.0,30.11,NNW,335,0.0,1.0,96,0.01,,,1.28,weatherlink.com 1.10,2013-01-14 21:37:00,
2013-01-14 16:52:00,48.1,47.0,30.12,South,179,0.0,1.0,96,0.01,,,1.29,weatherlink.com 1.10,2013-01-14 21:52:00,
2013-01-14 17:07:00,48.1,47.0,30.13,NNW,340,3.0,6.0,96,0.03,,,1.31,weatherlink.com 1.10,2013-01-14 22:07:00,
2013-01-14 17:22:00,46.5,45.0,30.14,NNW,347,1.0,7.0,95,0.06,,,1.34,weatherlink.com 1.10,2013-01-14 22:22:00,
2013-01-14 17:37:00,45.4,44.0,30.15,NNW,338,1.0,4.0,95,0.10,,,1.38,weatherlink.com 1.10,2013-01-14 22:37:00,
2013-01-14 17:52:00,44.8,44.0,30.16,NE,53,1.0,3.0,95,0.13,,,1.42,weatherlink.com 1.10,2013-01-14 22:52:00,
2013-01-14 18:07:00,44.1,43.0,30.18,West,271,0.0,2.0,95,0.16,,,1.47,weatherlink.com 1.10,2013-01-14 23:07:00,
2013-01-14 18:22:00,43.7,42.0,30.18,WSW,242,0.0,3.0,95,0.14,,,1.48,weatherlink.com 1.10,2013-01-14 23:22:00,
2013-01-14 18:37:00,43.3,42.0,30.19,SSW,212,0.0,1.0,95,0.10,,,1.48,weatherlink.com 1.10,2013-01-14 23:37:00,
2013-01-14 18:52:00,43.3,42.0,30.20,SSW,211,0.0,1.0,95,0.06,,,1.49,weatherlink.com 1.10,2013-01-14 23:52:00,
2013-01-14 19:07:00,43.3,42.0,30.21,SE,138,0.0,4.0,95,0.06,,,1.53,weatherlink.com 1.10,2013-01-15 00:07:00,
2013-01-14 19:22:00,43.3,42.0,30.21,WSW,249,1.0,1.0,95,0.06,,,1.54,weatherlink.com 1.10,2013-01-15 00:22:00,
2013-01-14 19:37:00,43.1,42.0,30.22,South,176,0.0,2.0,95,0.06,,,1.54,weatherlink.com 1.10,2013-01-15 00:37:00,
2013-01-14 19:52:00,42.9,42.0,30.22,SE,135,0.0,1.0,95,0.05,,,1.54,weatherlink.com 1.10,2013-01-15 00:52:00,
2013-01-14 20:07:00,42.6,41.0,30.21,East,82,0.0,1.0,95,0.01,,,1.54,weatherlink.com 1.10,2013-01-15 01:07:00,
2013-01-14 20:22:00,42.6,41.0,30.21,NNE,14,0.0,1.0,95,0.00,,,1.54,weatherlink.com 1.10,2013-01-15 01:22:00,
2013-01-14 20:37:00,42.3,41.0,30.21,SE,127,0.0,2.0,95,0.00,,,1.54,weatherlink.com 1.10,2013-01-15 01:37:00,
2013-01-14 20:52:00,42.2,41.0,30.21,WSW,255,0.0,1.0,95,0.00,,,1.54,weatherlink.com 1.10,2013-01-15 01:52:00,
2013-01-14 21:07:00,42.0,41.0,30.21,East,82,1.0,2.0,95,0.00,,,1.54,weatherlink.com 1.10,2013-01-15 02:07:00,
2013-01-14 21:22:00,41.9,41.0,30.21,SSE,154,0.0,2.0,95,0.00,,,1.54,weatherlink.com 1.10,2013-01-15 02:22:00,
2013-01-14 21:37:00,41.9,41.0,30.20,SSE,152,0.0,1.0,96,0.00,,,1.54,weatherlink.com 1.10,2013-01-15 02:37:00,
2013-01-14 21:52:00,41.9,41.0,30.20,SSE,166,0.0,2.0,95,0.00,,,1.54,weatherlink.com 1.10,2013-01-15 02:52:00,
2013-01-14 22:07:00,42.0,41.0,30.19,North,8,1.0,1.0,96,0.00,,,1.54,weatherlink.com 1.10,2013-01-15 03:07:00,
2013-01-14 22:22:00,42.2,41.0,30.19,North,358,0.0,1.0,96,0.00,,,1.54,weatherlink.com 1.10,2013-01-15 03:22:00,
2013-01-14 22:37:00,42.4,41.0,30.18,North,358,0.0,1.0,96,0.00,,,1.54,weatherlink.com 1.10,2013-01-15 03:37:00,
2013-01-14 22:52:00,42.7,42.0,30.18,NNE,12,0.0,0.0,96,0.01,,,1.55,weatherlink.com 1.10,2013-01-15 03:52:00,
2013-01-14 23:07:00,43.1,42.0,30.16,NNE,12,0.0,0.0,96,0.02,,,1.56,weatherlink.com 1.10,2013-01-15 04:07:00,
2013-01-14 23:22:00,43.6,43.0,30.17,NNW,342,0.0,0.0,96,0.02,,,1.56,weatherlink.com 1.10,2013-01-15 04:22:00,
2013-01-14 23:38:00,44.2,43.0,30.16,North,6,0.0,1.0,96,0.04,,,1.58,weatherlink.com 1.10,2013-01-15 04:38:00,
2013-01-14 23:53:00,44.4,43.0,30.16,NW,325,0.0,1.0,96,0.04,,,1.59,weatherlink.com 1.10,2013-01-15 04:53:00,